Overview Statistics Trail Chart Weather Telemetry Raw packets
 

This is the latest recevied weather packets stored in our database for station/object NO9B. If no packets are shown the sender has not sent any weather packets the latest 10 day(s).

<< 58 59 60 61 62 63 64 >>
Time Temp. Humidity Pressure Rain* Wind** Luminosity Snow
1788268968 25.56° C 93% 1016 hPa 0 mm - 43 W/m² -
1788268662 25.56° C 93% 1015.9 hPa 0 mm - 40 W/m² -
1788268362 25.56° C 94% 1015.7 hPa 0 mm - 45 W/m² -
1788268058 25° C 95% 1015.8 hPa 0 mm - 50 W/m² -
1788267757 25° C 95% 1015.8 hPa 0 mm - 44 W/m² -
1788267455 25° C 96% 1016 hPa 0 mm - 31 W/m² -
1788267150 24.44° C 96% 1015.9 hPa 0 mm - 27 W/m² -
1788266849 24.44° C 97% 1015.9 hPa 0 mm - 18 W/m² -
1788266544 24.44° C 97% 1015.9 hPa 0 mm - 15 W/m² -
1788266244 23.89° C 97% 1015.8 hPa 0 mm - 17 W/m² -
1788265939 23.89° C 97% 1015.9 hPa 0 mm - 18 W/m² -
1788265637 23.89° C 97% 1015.8 hPa 0 mm - 13 W/m² -
1788265333 23.89° C 97% 1015.8 hPa 0 mm - 14 W/m² -
1788265027 23.89° C 97% 1015.7 hPa 0 mm - 14 W/m² -
1788264723 23.89° C 97% 1015.8 hPa 0 mm - 13 W/m² -
1788264421 23.33° C 97% 1015.7 hPa 0 mm - 13 W/m² -
1788264117 23.33° C 97% 1015.6 hPa 0 mm - 12 W/m² -
1788263812 23.33° C 96% 1015.6 hPa 0 mm - 15 W/m² -
1788263508 23.33° C 96% 1015.4 hPa 0 mm - 10 W/m² -
1788263205 23.33° C 96% 1015.4 hPa 0 mm - 8 W/m² -
1788262904 23.33° C 96% 1015.1 hPa 0 mm - 8 W/m² -
1788262598 23.33° C 96% 1015 hPa 0 mm - 7 W/m² -
1788262293 23.33° C 96% 1015 hPa 0 mm - 4 W/m² -
1788261992 23.33° C 96% 1015 hPa 0 mm - 3 W/m² -
1788261687 23.33° C 96% 1014.9 hPa 0 mm - 2 W/m² -

* Rain latest hour (hover to see other rain measurements)
** Current wind speed in m/s (hover to see current wind gust speed)